Content
SEND FEEDBACK

United States of America Flag

GRANDVIEW, SOUTH DAKOTA


Home > North America > United States > South Dakota
Elevation: 1660 feet     Latitude: 43 44N     Longitude: 099 19W

WEATHER
 
SELECT A DAY
Number of Records: 218,126;   Date Range: 1/1/95 - 3/22/16
 
SHARE

PRINT THIS DATA

[ ← Previous Day ]
WEATHER ALMANAC - DECEMBER 26, 2013
[ Next Day → ]
[ °C ]   °F
Weather ElementAverageHighLow
Temperature31.3 °F41 °F (12:52 pm)23 °F (11:52 pm)
Dewpoint22.2 °F28 °F (3:52 pm)18 °F (7:52 am)
Humidity69.9 %88 % (11:52 pm)53 % (11:52 am)
Barometer30.15 in30.23 in (7:52 pm)30.05 in (4:52 am)
Wind Speed8.8 mph18.4 mph (11:52 am)
Wind Gust27.6 mph (12:52 pm)
Weather ElementAverage
Wind DirectionWSW (255.7 °)

Weather ElementTotal
Precipitation---
Heating Degree Days33 (Base 65)
Averaged from 23 records on December 26, 2013
WEATHER CONDITIONS BREAKOUT
WIND DIRECTION BREAKOUT
WEATHER BY HOUR - DECEMBER 26, 2013
[ °C ]   °F
Local TimeTemperatureDewpointHumidityBarometerVisibilityWind DirectionWind SpeedGust SpeedPrecipitationEventsConditions
1:52 AM28.0 °F19.9 °F72 %30.08 inWSW (250°)6.9 mph
2:52 AM26.1 °F19.0 °F75 %30.10 inWest (260°)6.9 mph
3:52 AM28.0 °F19.0 °F69 %30.08 inWest (260°)5.8 mph
4:52 AM28.9 °F19.9 °F69 %30.05 inSW (220°)6.9 mph
5:52 AM27.0 °F19.9 °F75 %30.08 inWSW (250°)4.6 mph
6:52 AM27.0 °F19.0 °F72 %30.09 inWest (280°)5.8 mph
7:52 AM26.1 °F18.0 °F71 %30.11 inWNW (290°)11.5 mph
8:52 AM26.1 °F18.0 °F71 %30.12 inWNW (290°)9.2 mph
9:52 AM30.9 °F19.0 °F61 %30.14 inWNW (290°)10.4 mph
10:52 AM34.0 °F21.0 °F59 %30.15 inWest (280°)11.5 mph
11:52 AM39.0 °F23.0 °F53 %30.14 inWNW (300°)18.4 mph
12:52 PM41.0 °F25.0 °F53 %30.13 inWest (260°)10.4 mph27.6 mph
1:52 PM41.0 °F26.1 °F55 %30.13 inNW (310°)13.8 mph24.2 mph
2:52 PM41.0 °F27.0 °F57 %30.16 inNW (320°)10.4 mph21.9 mph
3:52 PM39.9 °F28.0 °F63 %30.17 inNW (310°)16.1 mph
4:52 PM37.9 °F28.0 °F68 %30.18 inWNW (300°)11.5 mph
5:52 PM34.0 °F26.1 °F73 %30.19 inWest (280°)10.4 mph
6:52 PM34.0 °F26.1 °F73 %30.21 inWNW (290°)9.2 mph
7:52 PM27.0 °F21.9 °F81 %30.23 inWSW (250°)3.5 mph
8:52 PM26.1 °F21.9 °F84 %30.22 inCalm
9:52 PM27.0 °F21.9 °F81 %30.22 inSW (220°)5.8 mph
10:52 PM27.0 °F23.0 °F85 %30.20 inSouth (190°)5.8 mph
11:52 PM23.0 °F19.9 °F88 %30.19 inSouth (180°)6.9 mph
Hourly data recorded from K9V9, located miles away from Grandview, South Dakota




STORIES FROM OUR PARTNERS